Location: Cazavet
(43.0017°N, 1.0431°E)
Time: 08:05:41
(UTC+00:00)

Cosmos 1328 - Pass Details

Date: 18 January 2026
Orbit: 461 x 472 km, 82.5° (Epoch: 9 February)

Event Time Altitude Azimuth Distance (km) Brightness Sun altitude
Rises 05:59:54 0° 357° (N) 2,526 7.0 -14.9°
Reaches altitude 10° 06:02:03 10° 2° (N) 1,646 6.1 -14.6°
Maximum altitude 06:05:33 50° 79° (E) 613 4.4 -13.9°
Drops below altitude 10° 06:09:02 10° 156° (SSE) 1,638 6.8 -13.3°
Sets 06:11:10 0° 162° (SSE) 2,512 7.7 -13.0°
